Hovedside
METAR-TAF:

METAR-TAF

Lufthavner :

Mosjøen lufthavn. Kjærstad

Mosjøen, Norge

breddegrad: 65-48N, lengdegrad: 013-08E, høyde over havet: 70 m

Gjeldene værobservasjon

Denne rapporten ble laget for 5 timer og 31 minutter siden, klokken 20:50 UTC
Vind 8 kt fra Sørvest, skiftende mellom Sør og Vest-nordvest
Temperatur 5°C
Luftfuktighet 65%
Trykk 1009 hPa
Sikt 10 km eller mer
Få skyer i en høyde av 1400 ft, Tårnskyer (cumulus).
Spredte skyer i en høyde av 3000 ft
regnbyger i nærheten

METAR: ENMS 202050Z 23008KT 180V300 9999 VCSH FEW014TCU SCT030 05/M01 Q1009 RMK WIND 412FT 26010KT 200V310

Tid: 03:21 (02:21 UTC)


TAF: fraværende

Værobservasjoner og værvarsel for over 4000 flyplasser (METAR- og TAF-rapporter).

Tilgjengelige stasjoner er representert av de røde og gule prikkene på kartet.

Hold musepekeren over prikken for å se navnet på stasjonen.

Klikk så for å se værobservasjoner og -varsler.

For å forandre kartet kan du klikke på den grønne knappen med svart kryss for å zoome inn, på den grønne knappen med strek for å zoome ut, eller på de grønne pilene for å se tilstøtende kart.


METAR-TAF: